Weather History for KMUT - June, 2013

Change the Weather History Date:

Friday, June 28, 2013

  Actual Average Record
Temperature  
Mean Temperature 74 °F -  
Max Temperature 84 °F 85 °F 100 °F (2012)
Min Temperature 64 °F 63 °F 51 °F (1968)
Cooling Degree Days 9    
Growing Degree Days 24 (Base 50)    
Moisture  
Dew Point 57 °F    
Average Humidity 54    
Maximum Humidity 78    
Minimum Humidity 33    
Precipitation  
Precipitation 0.00 in - - ()
Sea Level Pressure  
Sea Level Pressure 29.75 in    
Wind  
Wind Speed 11 mph (NW)    
Max Wind Speed 23 mph    
Max Gust Speed 34 mph    
Visibility 10 miles    
Events      
Averages and records for this station are not official NWS values.
T = Trace of Precipitation, MM = Missing Value Source: NWS Daily Summary

Daily Weather History Graph

Daily Weather History Graph

Search for Another Location

Airport or City:

Trip Planner

Search our weather history database for the weather conditions in past years. The results will help you decide how hot, cold, wet, or windy it might be!

Date:

Astronomy

Jun. 28, 2013 Rise Set
Actual Time 5:33 AM CDT 8:42 PM CDT
Civil Twilight 4:59 AM CDT 9:15 PM CDT
Nautical Twilight 4:16 AM CDT 9:59 PM CDT
Astronomical Twilight 3:24 AM CDT 10:50 PM CDT
Moon No Moon Rise 11:45 AM CDT (6/28)
Length of Visible Light 16h 16m
Length of Day
15h 08m
Waning Gibbous, 66% of the Moon is Illuminated
Jun 28
Waning Gibbous
Jun 29
Last Quarter
Jul 8
New
Jul 15
First Quarter
Jul 22
Full

Hourly Weather History & Observations

Time (CDT) Temp. Heat Index Dew Point Humidity Pressure Visibility Wind Dir Wind Speed Gust Speed Precip Events Conditions
12:15 AM 69.8 °F - 62.6 °F 78% 29.83 in 10.0 mi WNW 6.9 mph - N/A   Unknown
12:35 AM 71.6 °F - 62.6 °F 73% 29.82 in 10.0 mi NW 6.9 mph - N/A   Unknown
12:55 AM 71.6 °F - 62.6 °F 73% 29.82 in 10.0 mi WNW 9.2 mph - N/A   Unknown
1:35 AM 71.6 °F - 60.8 °F 69% 29.80 in 10.0 mi WNW 9.2 mph - N/A   Unknown
1:55 AM 71.6 °F - 60.8 °F 69% 29.80 in 10.0 mi NW 8.1 mph - N/A   Unknown
2:15 AM 69.8 °F - 60.8 °F 73% 29.79 in 10.0 mi WNW 6.9 mph - N/A   Unknown
2:35 AM 68.0 °F - 60.8 °F 78% 29.79 in 10.0 mi WNW 6.9 mph - N/A   Unknown
2:55 AM 68.0 °F - 59.0 °F 73% 29.80 in 10.0 mi West 4.6 mph - N/A   Unknown
3:15 AM 66.2 °F - 59.0 °F 78% 29.79 in 10.0 mi WNW 4.6 mph - N/A   Unknown
3:35 AM 66.2 °F - 59.0 °F 78% 29.79 in 10.0 mi WNW 4.6 mph - N/A   Unknown
3:55 AM 66.2 °F - 59.0 °F 78% 29.78 in 10.0 mi WNW 5.8 mph - N/A   Unknown
4:15 AM 66.2 °F - 57.2 °F 73% 29.78 in 10.0 mi WNW 6.9 mph - N/A   Unknown
4:35 AM 66.2 °F - 57.2 °F 73% 29.78 in 10.0 mi WNW 5.8 mph - N/A   Unknown
4:55 AM 66.2 °F - 57.2 °F 73% 29.77 in 10.0 mi WNW 5.8 mph - N/A   Unknown
5:15 AM 66.2 °F - 57.2 °F 73% 29.77 in 10.0 mi WNW 5.8 mph - N/A   Unknown
5:35 AM 64.4 °F - 57.2 °F 77% 29.77 in 10.0 mi West 5.8 mph - N/A   Unknown
5:55 AM 64.4 °F - 57.2 °F 77% 29.78 in 10.0 mi WNW 4.6 mph - N/A   Unknown
6:15 AM 66.2 °F - 57.2 °F 73% 29.78 in 10.0 mi West 6.9 mph - N/A   Unknown
6:35 AM 68.0 °F - 57.2 °F 68% 29.79 in 10.0 mi West 9.2 mph - N/A   Unknown
6:55 AM 69.8 °F - 59.0 °F 68% 29.79 in 10.0 mi WNW 8.1 mph - N/A   Unknown
7:55 AM 73.4 °F - 59.0 °F 61% 29.79 in 10.0 mi WNW 11.5 mph - N/A   Unknown
8:15 AM 73.4 °F - 59.0 °F 61% 29.79 in 10.0 mi NW 9.2 mph - N/A   Unknown
8:35 AM 75.2 °F - 60.8 °F 61% 29.80 in 10.0 mi NW 10.4 mph - N/A   Unknown
8:55 AM 75.2 °F - 60.8 °F 61% 29.80 in 10.0 mi NW 11.5 mph - N/A   Unknown
9:15 AM 75.2 °F - 60.8 °F 61% 29.80 in 10.0 mi NW 11.5 mph 16.1 mph N/A   Unknown
9:35 AM 77.0 °F - 60.8 °F 57% 29.79 in 10.0 mi NW 13.8 mph - N/A   Unknown
9:55 AM 78.8 °F - 57.2 °F 47% 29.79 in 10.0 mi NW 15.0 mph 19.6 mph N/A   Unknown
10:15 AM 78.8 °F - 57.2 °F 47% 29.78 in 10.0 mi NW 16.1 mph 21.9 mph N/A   Unknown
10:35 AM 78.8 °F - 57.2 °F 47% 29.78 in 10.0 mi NW 12.7 mph 19.6 mph N/A   Unknown
10:55 AM 80.6 °F 80.5 °F 55.4 °F 42% 29.78 in 10.0 mi NW 12.7 mph - N/A   Unknown
11:15 AM 80.6 °F 80.5 °F 55.4 °F 42% 29.78 in 10.0 mi WNW 16.1 mph 23.0 mph N/A   Unknown
11:35 AM 80.6 °F 80.8 °F 57.2 °F 45% 29.77 in 10.0 mi WNW 15.0 mph 24.2 mph N/A   Unknown
11:55 AM 82.4 °F 81.7 °F 55.4 °F 39% 29.77 in 10.0 mi WNW 18.4 mph 25.3 mph N/A   Unknown
12:15 PM 82.4 °F 81.7 °F 55.4 °F 39% 29.76 in 10.0 mi WNW 16.1 mph 21.9 mph N/A   Unknown
12:35 PM 82.4 °F 81.7 °F 55.4 °F 39% 29.75 in 10.0 mi WNW 21.9 mph 26.5 mph N/A   Unknown
12:55 PM 82.4 °F 81.4 °F 53.6 °F 37% 29.75 in 10.0 mi WNW 20.7 mph 28.8 mph N/A   Unknown
1:15 PM 82.4 °F 81.4 °F 53.6 °F 37% 29.75 in 10.0 mi WNW 21.9 mph 28.8 mph N/A   Unknown
1:35 PM 82.4 °F - 51.8 °F 35% 29.75 in 10.0 mi NW 21.9 mph 28.8 mph N/A   Unknown
1:55 PM 82.4 °F - 51.8 °F 35% 29.74 in 10.0 mi WNW 21.9 mph 31.1 mph N/A   Unknown
2:15 PM 82.4 °F - 51.8 °F 35% 29.73 in 10.0 mi WNW 21.9 mph 27.6 mph N/A   Unknown
2:35 PM 84.2 °F - 51.8 °F 33% 29.73 in 10.0 mi NW 19.6 mph 28.8 mph N/A   Unknown
2:55 PM 82.4 °F 81.4 °F 53.6 °F 37% 29.72 in 10.0 mi WNW 19.6 mph 27.6 mph N/A   Unknown
3:15 PM 84.2 °F 82.8 °F 53.6 °F 35% 29.72 in 10.0 mi NW 21.9 mph 34.5 mph N/A   Unknown
3:35 PM 82.4 °F 81.4 °F 53.6 °F 37% 29.71 in 10.0 mi NW 20.7 mph 27.6 mph N/A   Unknown
3:55 PM 80.6 °F 80.5 °F 55.4 °F 42% 29.71 in 10.0 mi NW 16.1 mph 20.7 mph N/A   Unknown
4:15 PM 82.4 °F 81.4 °F 53.6 °F 37% 29.71 in 10.0 mi NW 18.4 mph 29.9 mph N/A   Unknown
4:35 PM 82.4 °F 81.4 °F 53.6 °F 37% 29.70 in 10.0 mi NW 18.4 mph 29.9 mph N/A   Unknown
4:55 PM 82.4 °F 81.4 °F 53.6 °F 37% 29.70 in 10.0 mi NW 23.0 mph 31.1 mph N/A   Unknown
5:15 PM 82.4 °F 81.4 °F 53.6 °F 37% 29.70 in 10.0 mi NW 20.7 mph 34.5 mph N/A   Unknown
5:35 PM 82.4 °F 81.4 °F 53.6 °F 37% 29.70 in 10.0 mi NNW 20.7 mph 32.2 mph N/A   Unknown
5:55 PM 82.4 °F 81.4 °F 53.6 °F 37% 29.70 in 10.0 mi NNW 20.7 mph 26.5 mph N/A   Unknown
6:15 PM 80.6 °F 80.3 °F 53.6 °F 39% 29.70 in 10.0 mi NNW 21.9 mph 28.8 mph N/A   Unknown
6:35 PM 80.6 °F 80.3 °F 53.6 °F 39% 29.70 in 10.0 mi NW 15.0 mph 21.9 mph N/A   Unknown
6:55 PM 80.6 °F 80.5 °F 55.4 °F 42% 29.70 in 10.0 mi NNW 12.7 mph - N/A   Unknown
7:15 PM 78.8 °F - 55.4 °F 44% 29.70 in 10.0 mi NNW 12.7 mph 16.1 mph N/A   Unknown
7:35 PM 78.8 °F - 55.4 °F 44% 29.71 in 10.0 mi NNW 13.8 mph 18.4 mph N/A   Unknown
7:55 PM 78.8 °F - 55.4 °F 44% 29.71 in 10.0 mi NNW 12.7 mph 20.7 mph N/A   Unknown
8:15 PM 77.0 °F - 55.4 °F 47% 29.71 in 10.0 mi NW 11.5 mph 17.3 mph N/A   Unknown
8:35 PM 75.2 °F - 55.4 °F 50% 29.71 in 10.0 mi NW 9.2 mph - N/A   Unknown
8:55 PM 75.2 °F - 55.4 °F 50% 29.71 in 10.0 mi NW 11.5 mph - N/A   Unknown
9:15 PM 73.4 °F - 55.4 °F 53% 29.71 in 10.0 mi NW 10.4 mph - N/A   Unknown
9:35 PM 73.4 °F - 57.2 °F 57% 29.72 in 10.0 mi NW 6.9 mph - N/A   Unknown
9:55 PM 71.6 °F - 57.2 °F 60% 29.72 in 10.0 mi NW 5.8 mph - N/A   Unknown
10:15 PM 71.6 °F - 57.2 °F 60% 29.71 in 7.0 mi NW 8.1 mph - N/A   Unknown
10:35 PM 71.6 °F - 57.2 °F 60% 29.71 in 10.0 mi WNW 8.1 mph - N/A   Unknown
10:55 PM 69.8 °F - 57.2 °F 64% 29.70 in 10.0 mi NW 18.4 mph 24.2 mph N/A   Unknown
11:15 PM 71.6 °F - 57.2 °F 60% 29.70 in 10.0 mi NNW 15.0 mph 24.2 mph N/A   Unknown
11:35 PM 71.6 °F - 57.2 °F 60% 29.70 in 10.0 mi NNW 12.7 mph 16.1 mph N/A   Unknown
11:55 PM 69.8 °F - 55.4 °F 60% 29.70 in 10.0 mi NNW 11.5 mph 18.4 mph N/A   Unknown